KA6ETS Weather Reports


Display with metric or nautical units.
time (UTC)temp
F
wind
direction
speed
MPH
gust
MPH
rain 1hr
in
rain 24hr
in
rain mn
in
humidity
%
barometer
mb
20260506121426 57 330 6.0 14.0 0.00 0.00 0.00 75 1011.3
20260506120924 57 317 7.0 15.0 0.00 0.00 0.00 75 1011.3
20260506120424 57 321 7.0 15.0 0.00 0.00 0.00 74 1011.3
20260506120148 57 294 6.0 12.0 0.00 0.00 0.00 74 1011.2
20260506115420 57 281 5.0 12.0 0.00 0.00 0.00 74 1011.0
20260506114921 57 299 5.0 11.0 0.00 0.00 0.00 74 1010.9
20260506114420 57 319 4.0 11.0 0.00 0.00 0.00 74 1010.8
20260506113921 57 5 4.0 10.0 0.00 0.00 0.00 74 1010.7
20260506113420 57 322 5.0 11.0 0.00 0.00 0.00 74 1010.4
20260506112921 58 344 7.0 17.0 0.00 0.00 0.00 73 1010.6
20260506112420 58 346 6.0 17.0 0.00 0.00 0.00 73 1010.4
20260506111921 58 286 7.0 15.0 0.00 0.00 0.00 73 1010.6
20260506111423 58 327 6.0 15.0 0.00 0.00 0.00 73 1010.2
20260506110915 58 255 5.0 11.0 0.00 0.00 0.00 73 1010.1
20260506110416 59 321 3.0 10.0 0.00 0.00 0.00 73 1010.1
20260506105918 59 330 4.0 11.0 0.00 0.00 0.00 73 1010.0
20260506105417 59 0 3.0 11.0 0.00 0.00 0.00 73 1010.0
20260506105146 59 19 3.0 8.0 0.00 0.00 0.00 73 1009.6
20260506104416 59 30 4.0 8.0 0.00 0.00 0.00 73 1009.6
20260506103917 59 59 3.0 8.0 0.00 0.00 0.00 72 1009.5
20260506103415 59 342 3.0 10.0 0.00 0.00 0.00 72 1009.5
20260506103400 59 9 4.0 10.0 0.00 0.00 0.00 72 1009.4
20260506102417 59 311 4.0 10.0 0.00 0.00 0.00 72 1009.4
20260506101916 59 336 3.0 10.0 0.00 0.00 0.00 72 1009.1
20260506101416 59 321 3.0 9.0 0.00 0.00 0.00 72 1009.1
20260506101139 59 355 3.0 9.0 0.00 0.00 0.00 73 1008.9
20260506100416 59 30 3.0 9.0 0.00 0.00 0.00 72 1008.8
20260506095916 60 336 3.0 9.0 0.00 0.00 0.00 73 1009.0
20260506095639 60 5 2.0 8.0 0.00 0.00 0.00 72 1008.9
20260506094917 60 28 2.0 8.0 0.00 0.00 0.00 72 1008.8
20260506094416 60 348 2.0 8.0 0.00 0.00 0.00 72 1008.8
20260506093916 60 322 3.0 8.0 0.00 0.00 0.00 72 1008.8
20260506093641 60 22 3.0 6.0 0.00 0.00 0.00 72 1008.9
20260506092919 60 333 3.0 9.0 0.00 0.00 0.00 72 1008.9
20260506092635 60 0 3.0 9.0 0.00 0.00 0.00 72 1008.9
20260506091917 60 355 3.0 7.0 0.00 0.00 0.00 72 1008.7
20260506091415 60 323 3.0 8.0 0.00 0.00 0.00 72 1008.6
20260506090916 60 348 3.0 8.0 0.00 0.00 0.00 73 1008.6
20260506090416 60 319 3.0 9.0 0.00 0.00 0.00 73 1008.5
20260506085915 60 305 3.0 11.0 0.00 0.00 0.00 73 1008.6
20260506085414 60 323 3.0 11.0 0.00 0.00 0.00 73 1008.5
20260506085131 61 347 2.0 7.0 0.00 0.00 0.00 73 1008.4
20260506084412 61 16 2.0 8.0 0.00 0.00 0.00 73 1008.2
20260506083913 61 308 1.0 8.0 0.00 0.00 0.00 73 1008.3
20260506083412 61 13 1.0 3.0 0.00 0.00 0.00 73 1008.0
20260506083403 61 355 1.0 3.0 0.00 0.00 0.00 73 1008.0
20260506082643 61 23 1.0 5.0 0.00 0.00 0.00 73 1007.9
20260506081911 61 24 1.0 5.0 0.00 0.00 0.00 73 1008.0
20260506081633 61 0 1.0 5.0 0.00 0.00 0.00 73 1007.9
20260506080912 62 355 1.0 5.0 0.00 0.00 0.00 74 1008.1
20260506080412 62 348 1.0 4.0 0.00 0.00 0.00 74 1008.0
20260506073410 62 325 2.0 8.0 0.00 0.00 0.00 74 1008.3
20260506072910 63 15 2.0 9.0 0.00 0.00 0.00 74 1008.3
20260506072407 63 344 4.0 11.0 0.00 0.00 0.00 74 1008.2
20260506071907 63 315 4.0 11.0 0.00 0.00 0.00 74 1008.2
20260506071408 63 338 4.0 10.0 0.00 0.00 0.00 74 1008.2
20260506071126 63 17 4.0 10.0 0.00 0.00 0.00 74 1008.2
20260506070406 63 321 4.0 10.0 0.00 0.00 0.00 74 1008.1
20260506062403 64 340 4.0 9.0 0.00 0.00 0.00 74 1008.1
20260506061902 64 329 4.0 9.0 0.00 0.00 0.00 74 1008.2
20260506061401 65 345 3.0 8.0 0.00 0.00 0.00 74 1008.0
20260506060856 65 334 3.0 8.0 0.00 0.00 0.00 74 1008.2
20260506060349 65 313 3.0 8.0 0.00 0.00 0.00 74 1008.1
20260506051249 67 50 6.0 13.0 0.00 0.00 0.00 73 1007.8
20260506050744 67 310 5.0 14.0 0.00 0.00 0.00 73 1007.7
20260506050237 68 327 5.0 14.0 0.00 0.00 0.00 73 1007.6
20260506044720 69 316 6.0 13.0 0.00 0.00 0.00 72 1007.7
20260506044434 69 304 6.0 16.0 0.00 0.00 0.00 72 1007.6
20260506043707 70 0 5.0 16.0 0.00 0.00 0.00 72 1007.6
20260506043201 70 307 4.0 11.0 0.00 0.00 0.00 72 1007.4
20260506042656 71 10 4.0 9.0 0.00 0.00 0.00 72 1007.3
20260506042156 71 0 5.0 10.0 0.00 0.00 0.00 72 1007.3
20260506041655 71 345 4.0 11.0 0.00 0.00 0.00 71 1007.2
20260506041155 71 319 5.0 11.0 0.00 0.00 0.00 72 1007.2
20260506040655 71 336 4.0 11.0 0.00 0.00 0.00 71 1007.1
20260506040157 72 342 4.0 10.0 0.00 0.00 0.00 71 1007.1
20260506035656 72 332 4.0 10.0 0.00 0.00 0.00 72 1007.3
20260506035416 72 331 4.0 9.0 0.00 0.00 0.00 72 1007.2
20260506034655 73 346 4.0 13.0 0.00 0.00 0.00 71 1007.1
20260506034155 73 332 4.0 13.0 0.00 0.00 0.00 71 1007.0
20260506033655 73 338 3.0 10.0 0.00 0.00 0.00 71 1006.9
20260506033156 74 21 4.0 11.0 0.00 0.00 0.00 70 1006.9
20260506032655 74 350 5.0 15.0 0.00 0.00 0.00 70 1006.9
20260506032153 74 0 5.0 15.0 0.00 0.00 0.00 69 1006.8
20260506031654 75 351 4.0 8.0 0.00 0.00 0.00 69 1006.8
20260506031152 75 323 4.0 10.0 0.00 0.00 0.00 69 1006.7
20260506030650 75 315 5.0 10.0 0.00 0.00 0.00 69 1006.5
20260506030150 75 297 5.0 10.0 0.00 0.00 0.00 69 1006.3
20260506025643 75 329 5.0 12.0 0.00 0.00 0.00 69 1006.0
20260506025137 75 22 5.0 12.0 0.00 0.00 0.00 69 1006.0
20260506024856 75 317 5.0 9.0 0.00 0.00 0.00 69 1005.9
20260506024125 76 345 4.0 8.0 0.00 0.00 0.00 69 1005.7
20260506023619 76 334 4.0 8.0 0.00 0.00 0.00 69 1005.4
20260506023113 76 314 3.0 7.0 0.00 0.00 0.00 69 1005.3
20260506022607 76 342 3.0 8.0 0.00 0.00 0.00 69 1005.0
20260506022107 77 338 3.0 9.0 0.00 0.00 0.00 69 1004.9
20260506021607 77 321 4.0 9.0 0.00 0.00 0.00 69 1004.7
20260506021108 78 345 5.0 12.0 0.00 0.00 0.00 68 1004.9
20260506020609 78 327 5.0 12.0 0.00 0.00 0.00 68 1004.9
20260506020106 80 326 4.0 9.0 0.00 0.00 0.00 68 1004.4
20260506015605 80 329 3.0 9.0 0.00 0.00 0.00 69 1004.5
20260506015105 81 165 3.0 7.0 0.00 0.00 0.00 74 1004.5
20260506014605 81 152 3.0 7.0 0.00 0.00 0.00 74 1004.2
20260506014106 81 151 3.0 7.0 0.00 0.00 0.00 74 1004.2
20260506013607 81 173 4.0 10.0 0.00 0.00 0.00 73 1004.2
20260506013101 81 167 4.0 10.0 0.00 0.00 0.00 73 1004.3
20260506012602 81 142 3.0 8.0 0.00 0.00 0.00 73 1004.5
20260506012101 81 148 2.0 7.0 0.00 0.00 0.00 74 1004.4
20260506011601 81 184 3.0 7.0 0.00 0.00 0.00 73 1004.0
20260506011544 81 189 3.0 8.0 0.00 0.00 0.00 73 1003.7
20260506010602 81 165 4.0 8.0 0.00 0.00 0.00 73 1003.4
20260506010104 81 164 3.0 8.0 0.00 0.00 0.00 73 1003.7
20260506005602 81 190 5.0 10.0 0.00 0.00 0.00 73 1003.9
20260506005102 82 173 6.0 11.0 0.00 0.00 0.00 72 1003.8
20260506004557 82 167 5.0 13.0 0.00 0.00 0.00 72 1003.8
20260506004058 82 157 4.0 13.0 0.00 0.00 0.00 72 1003.8
20260506003557 82 209 4.0 8.0 0.00 0.00 0.00 72 1003.9
20260506003057 82 240 3.0 7.0 0.00 0.00 0.00 72 1003.8
20260506002556 82 136 4.0 15.0 0.00 0.00 0.00 72 1003.5
20260506002057 82 185 7.0 17.0 0.00 0.00 0.00 71 1003.4
20260506001558 83 165 7.0 17.0 0.00 0.00 0.00 71 1003.2
20260506001057 83 138 7.0 14.0 0.00 0.00 0.00 71 1003.1
20260506000557 83 163 7.0 13.0 0.00 0.00 0.00 70 1003.0
20260506000057 83 132 8.0 13.0 0.00 0.00 0.00 70 1003.0
20260505235557 83 192 7.0 14.0 0.00 0.00 0.00 69 1002.8
20260505235057 84 148 6.0 14.0 0.00 0.00 0.00 69 1002.8
20260505234816 84 138 7.0 13.0 0.00 0.00 0.00 69 1002.8
20260505234054 84 117 8.0 16.0 0.00 0.00 0.00 68 1003.0
20260505233556 84 169 9.0 16.0 0.00 0.00 0.00 68 1003.0
20260505233055 85 167 9.0 16.0 0.00 0.00 0.00 67 1002.9
20260505232555 85 130 9.0 17.0 0.00 0.00 0.00 66 1002.9
20260505232055 85 127 9.0 18.0 0.00 0.00 0.00 67 1002.8
20260505231548 86 142 9.0 18.0 0.00 0.00 0.00 66 1002.9
20260505231042 86 130 9.0 17.0 0.00 0.00 0.00 65 1002.9
20260505230541 87 155 9.0 14.0 0.00 0.00 0.00 64 1002.8
20260505230039 88 140 9.0 15.0 0.00 0.00 0.00 64 1002.6
20260505225539 88 177 8.0 15.0 0.00 0.00 0.00 64 1002.5
20260505225040 88 136 8.0 14.0 0.00 0.00 0.00 64 1002.5
20260505224538 88 134 8.0 14.0 0.00 0.00 0.00 64 1002.6
20260505224038 88 153 8.0 14.0 0.00 0.00 0.00 64 1002.5
20260505223537 88 147 8.0 17.0 0.00 0.00 0.00 63 1002.3
20260505223037 88 131 8.0 17.0 0.00 0.00 0.00 62 1002.3
20260505222534 89 157 7.0 15.0 0.00 0.00 0.00 62 1002.3
20260505222034 89 113 7.0 12.0 0.00 0.00 0.00 61 1002.3
20260505221535 89 117 7.0 14.0 0.00 0.00 0.00 62 1002.4
20260505221034 89 127 8.0 14.0 0.00 0.00 0.00 62 1002.4
20260505220736 89 128 7.0 14.0 0.00 0.00 0.00 61 1002.4
20260505220729 89 126 7.0 14.0 0.00 0.00 0.00 62 1002.3
20260505215753 89 106 7.0 14.0 0.00 0.00 0.00 61 1002.5
20260505215026 89 142 8.0 14.0 0.00 0.00 0.00 61 1002.4
20260505214520 89 152 8.0 14.0 0.00 0.00 0.00 60 1002.5
20260505214014 89 130 7.0 17.0 0.00 0.00 0.00 61 1002.5
20260505213508 89 149 7.0 17.0 0.00 0.00 0.00 60 1002.6
20260505213001 89 161 8.0 15.0 0.00 0.00 0.00 60 1002.6
20260505212459 89 157 8.0 14.0 0.00 0.00 0.00 59 1002.7
20260505211959 90 195 8.0 15.0 0.00 0.00 0.00 60 1002.8
20260505211459 90 207 7.0 15.0 0.00 0.00 0.00 59 1002.9
20260505210957 90 140 7.0 13.0 0.00 0.00 0.00 60 1002.8
20260505210457 89 150 7.0 13.0 0.00 0.00 0.00 61 1002.7
20260505210221 89 193 7.0 12.0 0.00 0.00 0.00 61 1002.9
20260505205455 88 171 7.0 13.0 0.00 0.00 0.00 61 1002.9
20260505204954 88 132 7.0 14.0 0.00 0.00 0.00 60 1003.0
20260505204455 89 142 8.0 14.0 0.00 0.00 0.00 60 1003.0
20260505203952 89 166 9.0 17.0 0.00 0.00 0.00 60 1003.1
20260505203658 89 153 8.0 17.0 0.00 0.00 0.00 60 1003.3
20260505203651 89 147 8.0 17.0 0.00 0.00 0.00 59 1003.1
20260505202453 89 177 8.0 17.0 0.00 0.00 0.00 60 1003.3
20260505201951 89 213 8.0 16.0 0.00 0.00 0.00 59 1003.4
20260505201451 88 142 8.0 17.0 0.00 0.00 0.00 63 1003.4
20260505200950 88 184 8.0 17.0 0.00 0.00 0.00 62 1003.4
20260505200445 87 182 9.0 17.0 0.00 0.00 0.00 61 1003.4
20260505195938 88 209 8.0 17.0 0.00 0.00 0.00 61 1003.5
20260505195432 87 184 8.0 19.0 0.00 0.00 0.00 62 1003.4
20260505194928 87 161 9.0 19.0 0.00 0.00 0.00 63 1003.5
20260505194422 87 180 9.0 18.0 0.00 0.00 0.00 63 1003.5
20260505193914 87 150 8.0 18.0 0.00 0.00 0.00 63 1003.6
20260505193408 87 173 8.0 14.0 0.00 0.00 0.00 63 1003.6
20260505192902 86 173 8.0 15.0 0.00 0.00 0.00 64 1003.6
20260505192357 86 152 9.0 17.0 0.00 0.00 0.00 64 1003.6
20260505191850 86 150 10.0 18.0 0.00 0.00 0.00 64 1003.6
20260505191344 86 186 9.0 18.0 0.00 0.00 0.00 64 1003.7
20260505190838 85 159 9.0 18.0 0.00 0.00 0.00 66 1003.8
20260505190332 85 165 9.0 18.0 0.00 0.00 0.00 66 1003.8
20260505185827 85 134 9.0 17.0 0.00 0.00 0.00 65 1003.9
20260505185320 85 153 8.0 17.0 0.00 0.00 0.00 66 1003.9
20260505184814 85 196 9.0 17.0 0.00 0.00 0.00 67 1003.9
20260505184308 84 176 9.0 17.0 0.00 0.00 0.00 66 1004.0
20260505183804 84 171 8.0 18.0 0.00 0.00 0.00 67 1004.1
20260505183256 84 126 8.0 18.0 0.00 0.00 0.00 67 1004.1
20260505182751 84 156 8.0 18.0 0.00 0.00 0.00 67 1003.9
20260505182504 84 150 8.0 18.0 0.00 0.00 0.00 66 1004.1
20260505182002 84 181 9.0 14.0 0.00 0.00 0.00 67 1004.1
20260505181231 83 152 8.0 16.0 0.00 0.00 0.00 68 1004.0
20260505180945 83 150 8.0 16.0 0.00 0.00 0.00 67 1004.1
20260505180220 83 133 9.0 16.0 0.00 0.00 0.00 67 1004.2
20260505175940 83 120 10.0 16.0 0.00 0.00 0.00 67 1004.1
20260505175434 83 179 9.0 17.0 0.00 0.00 0.00 67 1004.0
20260505174702 83 187 9.0 20.0 0.00 0.00 0.00 66 1004.2
20260505174422 83 152 9.0 20.0 0.00 0.00 0.00 67 1004.1
20260505173651 83 163 9.0 19.0 0.00 0.00 0.00 67 1004.0
20260505173408 83 206 9.0 19.0 0.00 0.00 0.00 67 1004.0
20260505172638 82 196 9.0 19.0 0.00 0.00 0.00 67 1004.0
20260505172132 82 213 9.0 15.0 0.00 0.00 0.00 68 1004.1
20260505171627 83 109 9.0 23.0 0.00 0.00 0.00 67 1004.2
20260505171120 83 156 10.0 23.0 0.00 0.00 0.00 67 1004.2
20260505171051 82 188 10.0 22.0 0.00 0.00 0.00 68 1004.3
20260505170109 82 127 9.0 22.0 0.00 0.00 0.00 70 1004.3
20260505165602 81 141 9.0 18.0 0.00 0.00 0.00 70 1004.2
20260505165317 80 165 9.0 18.0 0.00 0.00 0.00 71 1004.3
20260505164550 80 212 9.0 17.0 0.00 0.00 0.00 71 1004.4
20260505164045 80 184 9.0 19.0 0.00 0.00 0.00 71 1004.4
20260505163538 80 146 9.0 19.0 0.00 0.00 0.00 70 1004.1
20260505163255 81 166 8.0 18.0 0.00 0.00 0.00 70 1004.1
20260505162527 80 144 9.0 19.0 0.00 0.00 0.00 71 1004.2
20260505162021 80 109 9.0 18.0 0.00 0.00 0.00 71 1004.0
20260505161515 80 204 8.0 16.0 0.00 0.00 0.00 72 1004.1
20260505161008 80 134 9.0 17.0 0.00 0.00 0.00 72 1004.2
20260505160954 79 155 10.0 18.0 0.00 0.00 0.00 73 1004.1
20260505160230 79 207 10.0 19.0 0.00 0.00 0.00 73 1004.0
20260505153008 78 149 10.0 26.0 0.00 0.00 0.00 75 1004.1
20260505152509 77 198 11.0 26.0 0.00 0.00 0.00 76 1004.0
20260505152009 77 193 10.0 21.0 0.00 0.00 0.00 77 1004.0
20260505151509 76 148 9.0 18.0 0.00 0.00 0.00 78 1004.1
20260505151009 76 188 9.0 16.0 0.00 0.00 0.00 78 1004.1
20260505150509 75 148 8.0 20.0 0.00 0.00 0.00 79 1004.2
20260505140454 73 158 7.0 15.0 0.00 0.00 0.00 82 1004.1
20260505124952 72 152 8.0 15.0 0.00 0.00 0.00 83 1003.9
20260505124715 71 136 8.0 15.0 0.00 0.00 0.00 83 1003.7
20260505123952 71 144 7.0 15.0 0.00 0.00 0.00 83 1003.7
20260505123718 71 155 6.0 14.0 0.00 0.00 0.00 83 1003.5
20260505123211 71 184 6.0 16.0 0.00 0.00 0.00 83 1003.5
20260505122450 71 110 8.0 16.0 0.00 0.00 0.00 83 1003.3
20260505121949 71 145 9.0 16.0 0.00 0.00 0.00 83 1003.3